STARLINK-5657 (55342 NORAD) Tracking and Keplerian Element Data

This shows tracking and keplerian element data for the satellite.

Feedback or suggestion? Click here.




ElementValue
Catalog55342
NameSTARLINK-5657
Epoch Orbit1602
Epoch Day126.87585921
Epoch Year2023
RAAN179.6598
Inclination43.0012
Eccentricity0.0001724
Argument of Perigee272.5362
Mean Anonmoly87.5283
Mean Motion15.02538334
Decay Rate2.2E-07
L11 55342U 23013M 23126.87585921 .00000022 00000+0 16744-4 0 9996
L22 55342 43.0012 179.6598 0001724 272.5362 87.5283 15.02538334 16023



Live tracking and technical data element details for STARLINK-5657 (NORAD 55342). STARLINK-5657 can be tracked NOW for your location showing map with azimuth and elevation plus other details from your city location.







IsCatalogInMostPopularTable: catalog: 55342, numindb: -1

Insert: records affected: 1


GetName: 55342 STARLINK-5657

Hit Count: inserted at: Mon, 05 Jun 2023 19:43:26 GMT